Location: Glenbrook
(38.8516°N, 122.7586°W)
Time: 04:29:13
(UTC+00:00)

Daily predictions for brighter satellites

Satellite Brightness Start Highest point End
(mag) Time Altitude Azimuth Time Altitude Azimuth Time Altitude Azimuth
Cosmos 1634 Rocket 4.1 03:57:33 10° N 04:03:55 81° E 04:10:15 10° S
ATLAS 2AS CENTAUR R/B 4.1 03:58:28 10° SSE 04:03:58 21° ESE 04:09:31 10° ENE
MetOp-A 4.3 03:59:35 10° SSE 04:04:50 60° ENE 04:10:06 10° N
STARLINK-1094 4.0 04:01:23 10° WNW 04:05:28 57° SW 04:09:30 10° SSE
CZ-2C R/B 3.7 04:03:56 10° NNE 04:08:27 63° ESE 04:13:01 10° S
STARLINK-1117 4.2 04:06:24 10° WNW 04:10:26 51° SW 04:14:27 10° SSE
GPS 2-04 Rocket1 3.3 04:08:02 10° W 04:11:08 33° SSW 04:14:18 10° SE
Cosmos 2221 Rocket 3.8 04:08:03 10° S 04:12:34 82° W 04:17:09 10° N
EXPRESS MD2 4.4 04:11:34 10° W 04:13:54 35° NNW 04:17:34 10° NE
FALCON 9 DEB 4.4 04:11:25 10° S 04:14:01 21° SE 04:16:39 10° E
Ariane Rocket 3.8 04:09:32 10° S 04:14:29 54° W 04:19:29 10° NNW
Okean 1 Rocket 4.5 04:11:51 10° NNE 04:15:23 23° ENE 04:18:48 10° SE
STARLINK-1078 4.4 04:11:24 10° WNW 04:15:23 46° SW 04:19:20 10° SSE
SL-4 R/B 2.3 04:11:08 10° SW 04:15:42 75° SE 04:20:30 10° NE
Cosmos 1741 Rocket 4.1 04:11:48 10° NNW 04:17:00 65° ENE 04:22:11 10° SSE
DMSP B5D2-2 4.1 04:13:17 10° NNE 04:18:36 84° ESE 04:23:51 10° SSW
Cosmos 1110 Rocket 4.0 04:13:32 10° S 04:18:37 59° ESE 04:23:42 10° NNE
STARLINK-1121 4.4 04:18:40 10° NW 04:22:39 43° NE 04:26:30 11° ESE
Cosmos 1850 Rocket 4.1 04:18:25 10° NNW 04:23:48 79° ENE 04:29:07 10° SSE
MOS 1 Rocket 3.7 04:20:35 10° N 04:24:48 60° WNW 04:29:01 10° SSW
STARLINK-60 3.7 04:22:26 10° WSW 04:25:32 57° NW 04:28:40 10° NE
Cosmos 1437 Rocket 2.6 04:23:40 10° S 04:27:27 86° E 04:31:18 10° N
Meteor 1-13 Rocket 4.4 04:21:59 10° S 04:27:37 84° W 04:33:26 10° N
STARLINK-1106 4.3 04:23:39 10° NW 04:27:40 47° NE 04:31:18 12° ESE
Okean 2 Rocket 3.2 04:23:17 10° N 04:27:41 76° W 04:32:03 10° S
Abrixas rocket 1.9 04:26:27 10° NW 04:29:24 80° NNE 04:31:38 16° ESE
ATLAS CENTAUR R/B 3.2 04:28:15 13° SE 04:29:35 14° ESE 04:31:55 10° ENE
Cosmos 1331 Rocket 3.9 04:25:58 10° S 04:31:04 70° ESE 04:36:14 10° NNE
ASTRO E2 4.2 04:28:14 10° WSW 04:31:20 22° S 04:33:40 14° SSE
STARLINK-1112 4.1 04:28:36 10° NW 04:32:40 52° NE 04:36:05 14° ESE
Resurs 01 Rocket 1.7 04:32:17 11° SSE 04:36:31 64° ENE 04:40:55 10° N
USA 245 4.5 04:36:23 12° E 04:37:04 13° ENE 04:38:24 10° NE
Cosmos 1300 Rocket 3.9 04:32:48 10° NNW 04:37:13 68° W 04:41:35 10° S
STARLINK-1128 4.0 04:33:33 10° NW 04:37:38 57° NE 04:40:51 16° ESE
Cosmos 304 Rocket 4.3 04:33:02 10° SSW 04:37:45 62° WNW 04:42:30 10° NNE
deb Kosmos-1763 4.0 04:34:13 10° NNW 04:37:48 68° ENE 04:40:34 16° SSE
CZ-2C R/B 3.2 04:33:41 10° N 04:39:16 68° WNW 04:44:48 10° SSW
STARLINK-1444 3.5 04:39:19 10° WSW 04:41:14 37° NW 04:43:10 10° NE
STARLINK-1452 3.5 04:39:56 10° WSW 04:41:51 36° NW 04:43:47 10° NNE
BREEZE-M DEB (TANK) 3.1 04:39:55 10° SSW 04:42:11 34° SE 04:46:51 10° ENE
STARLINK-1113 3.9 04:38:32 10° NW 04:42:39 62° NE 04:45:39 17° ESE
STARLINK-1450 3.6 04:41:10 10° WSW 04:43:00 34° NW 04:44:51 10° NNE
STARLINK-1392 3.6 04:41:19 10° WSW 04:43:09 33° NW 04:45:00 10° NNE
STARLINK-1399 3.6 04:41:20 10° WSW 04:43:10 33° NW 04:45:01 10° NNE
STARLINK-1415 3.6 04:41:20 10° WSW 04:43:10 33° NW 04:45:01 10° NNE
STARLINK-1394 3.6 04:41:21 10° WSW 04:43:11 33° NW 04:45:02 10° NNE
STARLINK-1436 (VISORSAT) 3.6 04:41:20 10° WSW 04:43:11 34° NW 04:45:04 10° NNE
STARLINK-1395 3.6 04:41:21 10° WSW 04:43:11 33° NW 04:45:02 10° NNE
STARLINK-1393 3.6 04:41:21 10° WSW 04:43:11 33° NW 04:45:02 10° NNE
STARLINK-1414 3.6 04:41:20 10° WSW 04:43:12 34° NW 04:45:04 10° NNE
STARLINK-1396 3.6 04:41:22 10° WSW 04:43:12 33° NW 04:45:03 10° NNE
STARLINK-1401 3.6 04:41:22 10° WSW 04:43:12 33° NW 04:45:03 10° NNE
STARLINK-1397 3.6 04:41:22 10° WSW 04:43:12 33° NW 04:45:03 10° NNE
STARLINK-1416 3.6 04:41:21 10° WSW 04:43:12 34° NW 04:45:06 10° NNE
STARLINK-1453 3.6 04:41:23 10° WSW 04:43:14 33° NW 04:45:04 10° NNE
STARLINK-1404 3.6 04:41:23 10° WSW 04:43:14 33° NW 04:45:04 10° NNE
STARLINK-1408 3.6 04:41:22 10° WSW 04:43:14 34° NW 04:45:07 10° NNE
STARLINK-1398 3.6 04:41:21 10° WSW 04:43:14 34° NW 04:45:07 10° NNE
STARLINK-1402 3.6 04:41:25 10° WSW 04:43:15 33° NW 04:45:06 10° NNE
STARLINK-1417 3.6 04:41:25 10° WSW 04:43:15 33° NW 04:45:06 10° NNE
STARLINK-1419 3.6 04:41:23 10° WSW 04:43:16 34° NW 04:45:09 10° NNE
STARLINK-1413 3.6 04:41:26 10° WSW 04:43:16 33° NW 04:45:07 10° NNE
STARLINK-1406 3.6 04:41:26 10° WSW 04:43:16 33° NW 04:45:07 10° NNE
STARLINK-1440 3.6 04:41:28 10° WSW 04:43:18 33° NW 04:45:09 10° NNE
STARLINK-1445 3.6 04:41:29 10° WSW 04:43:19 33° NW 04:45:10 10° NNE
SPOT 3 Rocket 3.8 04:38:11 10° S 04:43:19 70° WSW 04:48:29 10° NNW
STARLINK-1420 3.6 04:41:27 10° WSW 04:43:19 34° NW 04:45:12 10° NNE
STARLINK-1443 3.6 04:41:29 10° WSW 04:43:19 33° NW 04:45:10 10° NNE
STARLINK-1422 3.6 04:41:27 10° WSW 04:43:20 34° NW 04:45:13 10° NNE
STARLINK-1454 3.6 04:41:30 10° WSW 04:43:20 33° NW 04:45:11 10° NNE
STARLINK-1457 3.6 04:41:30 10° WSW 04:43:21 33° NW 04:45:11 10° NNE
STARLINK-1460 3.6 04:41:29 10° WSW 04:43:21 34° NW 04:45:14 10° NNE
STARLINK-1456 3.6 04:41:31 10° WSW 04:43:21 33° NW 04:45:12 10° NNE
STARLINK-1451 3.6 04:41:31 10° WSW 04:43:21 33° NW 04:45:12 10° NNE
STARLINK-1442 3.6 04:41:32 10° WSW 04:43:23 33° NW 04:45:13 10° NNE
STARLINK-1458 3.6 04:41:31 10° WSW 04:43:23 34° NW 04:45:16 10° NNE
STARLINK-1405 3.6 04:41:35 10° WSW 04:43:25 33° NW 04:45:16 10° NNE
STARLINK-1421 3.6 04:41:35 10° WSW 04:43:26 33° NW 04:45:16 10° NNE
STARLINK-1410 3.6 04:41:36 10° WSW 04:43:27 33° NW 04:45:17 10° NNE
STARLINK-1407 3.6 04:41:36 10° WSW 04:43:27 33° NW 04:45:17 10° NNE
STARLINK-1400 3.6 04:41:36 10° WSW 04:43:27 33° NW 04:45:17 10° NNE
STARLINK-1446 3.6 04:41:33 10° WSW 04:43:27 34° NW 04:45:20 10° NNE
STARLINK-1437 3.6 04:41:35 10° WSW 04:43:27 34° NW 04:45:20 10° NNE
STARLINK-1439 3.6 04:41:37 10° WSW 04:43:27 33° NW 04:45:18 10° NNE
STARLINK-1409 3.6 04:41:38 10° WSW 04:43:28 33° NW 04:45:18 10° NNE
STARLINK-1423 3.6 04:41:35 10° WSW 04:43:28 34° NW 04:45:21 10° NNE
STARLINK-1370 3.6 04:41:38 10° WSW 04:43:28 33° NW 04:45:19 10° NNE
STARLINK-1351 3.6 04:41:38 10° WSW 04:43:28 33° NW 04:45:19 10° NNE
STARLINK-1418 3.6 04:41:39 10° WSW 04:43:29 33° NW 04:45:20 10° NNE
STARLINK-1434 3.6 04:41:39 10° WSW 04:43:29 33° NW 04:45:20 10° NNE
STARLINK-1447 3.6 04:41:37 10° WSW 04:43:30 34° NW 04:45:23 10° NNE
STARLINK-1403 3.6 04:41:40 10° WSW 04:43:30 33° NW 04:45:21 10° NNE
STARLINK-1455 3.6 04:41:37 10° WSW 04:43:30 34° NW 04:45:23 10° NNE
STARLINK-1441 3.6 04:41:38 10° WSW 04:43:31 34° NW 04:45:24 10° NNE
STARLINK-1433 3.6 04:41:41 10° WSW 04:43:31 33° NW 04:45:22 10° NNE
Cosmos 2151 Rocket 3.8 04:39:00 10° N 04:43:32 75° W 04:48:01 10° S
STARLINK-1411 3.6 04:41:42 10° WSW 04:43:33 33° NW 04:45:23 10° NNE
STARLINK-1448 3.6 04:41:40 10° WSW 04:43:33 34° NW 04:45:26 10° NNE
STARLINK-1438 3.6 04:41:43 10° WSW 04:43:33 33° NW 04:45:23 10° NNE
STARLINK-1449 3.6 04:41:41 10° WSW 04:43:34 34° NW 04:45:27 10° NNE
STARLINK-1412 3.7 04:41:49 10° WSW 04:43:42 34° NW 04:45:35 10° NNE
Cosmos 1302 Rocket 4.3 04:39:47 10° S 04:44:49 47° ESE 04:49:52 10° NNE
Cosmos 1943 Rocket 2.1 04:40:27 10° S 04:45:54 63° ESE 04:51:26 10° NNE
STARLINK-1119 3.7 04:43:29 10° NW 04:47:37 68° NE 04:50:25 20° ESE
Resurs 1-3 4.1 04:45:41 10° S 04:50:00 59° W 04:54:21 10° NNW
H-2A R/B 4.4 04:46:40 10° SW 04:50:22 20° W 04:54:10 10° NW
Cosmos 1766 4.5 04:47:22 10° NNE 04:50:47 27° ENE 04:52:31 20° ESE
STARLINK-1114 3.6 04:48:28 10° NW 04:52:37 75° NE 04:55:13 22° ESE
Aureole 2 4.0 04:53:15 10° NNW 04:56:12 77° WSW 04:57:46 25° S
Cosmos 1674 Rocket 4.1 04:52:11 10° SSW 04:56:30 61° W 05:00:53 10° N
Cosmos 1378 Rocket 3.6 04:52:09 10° S 04:56:32 83° W 05:00:55 10° N
STARLINK-1130 (DARKSAT) 3.6 04:53:25 10° NW 04:57:35 83° NE 04:59:59 24° SE
STARLINK-29 3.5 04:54:32 10° WSW 04:57:43 62° NW 05:00:55 10° NE
CENTAUR R/B 4.0 04:52:16 10° NNW 04:59:48 40° NE 05:06:36 15° ESE
STARLINK-1084 3.5 04:58:24 10° NW 05:02:34 90° SW 05:04:47 27° SE
Milstar 3 Cent rocket 4.1 04:55:45 10° SW 05:02:41 36° SSE 05:15:50 10° E
STARLINK-1371 4.3 05:05:40 28° ESE 05:05:40 28° ESE 05:08:49 10° ENE
Nadezhda 4 Rocket 3.9 05:00:16 10° S 05:06:23 88° E 05:12:32 10° N
Cosmos 1656 Rocket 4.4 05:04:04 21° SSE 05:06:45 32° ESE 05:11:37 10° NE
ATLAS 3B R/B 4.5 05:02:03 10° N 05:06:57 20° NE 05:11:55 10° E
STARLINK-1098 3.6 05:03:22 10° NW 05:07:31 82° SW 05:09:33 29° SE
STARLINK-1341 4.2 05:09:38 30° SE 05:09:38 30° SE 05:13:01 10° ENE
STARLINK-1123 3.6 05:08:22 10° NW 05:12:30 74° SW 05:14:20 32° SE
SL-8 R/B 3.6 05:07:42 10° WNW 05:12:31 85° SSW 05:15:03 28° SE
Cosmos 292 Rocket 4.0 05:09:17 19° S 05:12:34 51° ESE 05:17:16 10° NNE
STARLINK-1374 4.1 05:13:39 33° SE 05:13:39 33° SE 05:17:11 10° ENE
Cosmos 1378 3.1 05:12:05 17° S 05:14:49 80° W 05:18:31 10° N
Cosmos 2082 Rocket 4.0 05:11:41 10° NW 05:16:20 26° WSW 05:20:57 10° SSW
STARLINK-1097 3.7 05:13:21 10° NW 05:17:27 67° SW 05:19:07 34° SSE
STARLINK-1339 4.0 05:17:36 36° SE 05:17:47 36° SE 05:21:24 10° ENE
Cosmos 2369 Rocket 2.1 05:13:06 10° SSW 05:18:47 85° ESE 05:24:27 10° NNE
MetOp-B 4.2 05:16:07 20° S 05:19:52 79° WSW 05:25:15 10° NNW
NOSS 3-2 (C) 4.5 05:13:30 10° NNW 05:21:00 55° NE 05:26:32 22° ESE
ERS-1 Rocket 3.5 05:19:12 27° SE 05:21:27 44° ENE 05:26:12 10° N
Cosmos 1975 Rocket 3.1 05:19:47 29° SSE 05:21:53 60° E 05:26:13 10° NNE
STARLINK-1377 3.8 05:21:34 38° SSE 05:21:55 39° SE 05:25:37 10° ENE
STARLINK-1099 3.8 05:18:20 10° NW 05:22:25 60° SW 05:23:53 36° SSE
Cosmos 1805 3.1 05:20:04 10° N 05:24:00 84° E 05:25:31 36° SSE
STARLINK-1353 3.7 05:25:29 40° SSE 05:26:05 43° SE 05:29:50 10° ENE
NOSS 3-4 (A) 3.3 05:20:34 10° SSW 05:26:21 63° ESE 05:32:25 10° NE
NOSS 3-4 (C) 3.3 05:20:40 10° SSW 05:26:27 62° ESE 05:32:32 10° NE
STARLINK-1104 3.9 05:23:21 10° WNW 05:27:24 54° SW 05:28:41 37° S
Landsat 7 3.7 05:25:57 29° SSE 05:28:22 88° E 05:33:10 10° NNW
STARLINK-1360 4.5 05:30:17 23° ENE 05:30:17 23° ENE 05:31:40 10° NE
Lacrosse 5 4.5 05:28:16 10° WSW 05:28:45 10° WSW 05:29:13 10° WSW
STARLINK-1367 4.4 05:30:52 24° ENE 05:30:52 24° ENE 05:32:19 10° NE
Cosmos 1470 4.2 05:26:20 10° NNE 05:29:23 22° ENE 05:29:36 22° E
STARLINK-1366 4.5 05:31:16 24° ENE 05:31:16 24° ENE 05:32:40 10° NE
STARLINK-1375 3.6 05:29:31 41° S 05:30:16 48° SE 05:34:04 10° ENE
STARLINK-1144 4.1 05:28:21 10° WNW 05:32:21 48° SW 05:33:28 37° S
SAR-Lupe-2 4.0 05:29:16 10° N 05:32:49 60° WNW 05:34:57 22° SSW
STARLINK-1350 3.5 05:33:28 41° S 05:34:26 53° SE 05:38:16 10° ENE
SWAS 4.4 05:30:11 10° NNW 05:34:31 81° WSW 05:35:58 41° SSE
Cosmos 968 Rocket 4.1 05:31:17 10° N 05:36:08 41° ENE 05:37:51 31° ESE
Cosmos 1842 3.1 05:36:05 45° S 05:37:13 80° E 05:41:06 10° N
Cosmos 1733 3.0 05:33:27 10° N 05:37:15 79° E 05:38:02 54° SSE
STARLINK-1103 4.3 05:33:22 10° WNW 05:37:18 43° SW 05:38:14 37° SSW
STARLINK-1352 3.4 05:37:31 39° SSW 05:38:41 58° SE 05:42:34 10° NE
STARLINK-1101 4.4 05:38:23 10° WNW 05:42:15 39° SW 05:43:01 35° SSW
STARLINK-1368 3.3 05:41:33 36° SSW 05:42:57 64° SE 05:46:51 10° NE
STARLINK-1369 3.3 05:45:36 33° SSW 05:47:13 71° SE 05:51:08 10° NE
BREEZE-M DEB (TANK) 3.5 05:36:23 10° SW 05:49:00 53° SE 05:53:02 10° ENE
Cosmos 1953 4.2 05:47:57 10° NNE 05:50:26 17° ENE 05:50:26 17° ENE
STARLINK-1372 3.3 05:49:38 29° SW 05:51:30 77° SE 05:55:27 10° NE
Cosmos 1271 Rocket 2.8 05:51:50 55° E 05:51:50 55° E 05:55:41 10° NNE
ATLAS 3B CENTAUR R/B 3.7 05:37:58 10° W 05:53:09 45° SSW 05:56:32 33° SSE
ATLAS 2AS CENTAUR R/B 3.1 05:46:10 10° SW 05:54:06 83° WNW 06:02:09 10° NNE
Cosmos 1455 Rocket 2.9 05:50:13 10° N 05:54:33 79° E 05:55:19 59° SSE
STARLINK-1378 3.3 05:53:38 26° SW 05:55:47 85° SE 05:59:44 10° NE
SL-4 R/B 4.4 05:51:43 10° W 05:55:51 29° NNW 06:00:04 10° NE
Cosmos 1092 Rocket 4.4 05:51:41 15° SSW 05:56:42 60° W 06:02:48 10° N
STARLINK-1235 3.9 05:53:50 10° NW 05:57:07 42° NE 05:57:16 41° NE
SL-27 R/B 2.7 05:54:19 10° NNW 05:57:48 58° WSW 05:57:55 58° WSW
Spot 2 Rocket 4.5 05:55:53 23° SSW 05:58:31 40° W 06:03:15 10° NNW
NOSS 3-2 (A) 4.3 05:51:40 10° NW 05:59:24 67° WSW 06:03:41 32° S
COSMOS 2455 2.7 05:56:28 30° S 05:59:34 70° ESE 06:05:34 10° NNE
STARLINK-1379 3.4 05:57:42 23° SW 06:00:07 88° NW 06:04:05 10° NE
CARTOSAT-1 3.5 06:00:05 55° S 06:00:59 77° W 06:05:18 10° NNW
COSMOS 2487 4.3 05:58:59 10° NNE 06:01:15 20° NE 06:01:15 20° NE
Cosmos 1707 3.1 06:03:58 49° ENE 06:03:58 49° ENE 06:07:18 10° NNE
STARLINK-1329 3.4 06:00:56 20° SW 06:03:33 83° NW 06:07:31 10° NE
SPOT 5 3.1 06:04:51 45° S 06:06:31 80° WSW 06:11:54 10° NNW
STARLINK-1362 3.6 06:04:32 13° SW 06:08:00 76° NW 06:12:00 10° NE
ATLAS CENTAUR R/B 2.1 06:04:12 13° SW 06:08:07 54° WNW 06:12:15 10° NNE
Cosmos 1758 3.5 06:05:16 10° N 06:09:14 59° ENE 06:09:14 59° ENE
STARLINK-1373 3.7 06:09:15 16° WSW 06:12:21 70° NW 06:16:19 10° NE
Cosmos 1242 Rocket 3.4 06:12:37 41° WSW 06:13:10 45° WNW 06:16:44 10° N
Resurs 01 Rocket 4.4 06:12:20 10° WSW 06:13:23 11° W 06:14:25 10° WNW
Terra 1.7 06:12:47 62° SSE 06:13:35 88° ENE 06:18:23 10° NNW
USA 238 DEB 4.3 06:06:49 10° NW 06:13:52 53° WSW 06:16:55 34° S
USA 238 4.3 06:06:55 10° NW 06:13:59 54° WSW 06:17:02 34° S
Meteor 2-10 4.4 06:11:13 10° N 06:16:04 45° ENE 06:16:35 44° E
STARLINK-1212 4.3 06:13:04 10° NW 06:15:18 37° N 06:15:18 37° N
STARLINK-1105 4.3 06:13:35 10° NW 06:15:49 37° N 06:15:49 37° N
STARLINK-1390 3.9 06:13:24 14° WSW 06:16:46 64° NW 06:20:43 10° NE
Cosmos 1503 Rocket 4.0 06:12:11 10° NNW 06:17:32 72° ENE 06:18:32 57° SE
STARLINK-1247 4.3 06:14:35 10° NW 06:16:47 37° NNW 06:16:47 37° NNW
STARLINK-1227 4.4 06:15:04 10° NW 06:17:13 36° NNW 06:17:13 36° NNW
STARLINK-1226 4.4 06:16:02 10° NW 06:18:10 36° NNW 06:18:10 36° NNW
STARLINK-1215 4.4 06:17:05 10° NW 06:19:14 36° NNW 06:19:14 36° NNW
STARLINK-1365 4.1 06:17:15 10° WSW 06:21:12 57° NW 06:25:11 10° NE
Cosmos 1536 Rocket 3.4 06:21:52 79° E 06:21:52 79° E 06:26:13 10° N
STARLINK-1217 4.5 06:19:07 10° NW 06:21:11 35° NNW 06:21:11 35° NNW
STARLINK-1270 4.5 06:21:12 10° NW 06:23:15 35° NNW 06:23:15 35° NNW
Cosmos 2084 3.4 06:28:27 81° NE 06:28:27 81° NE 06:32:43 10° NE
SeaSat 1 3.8 06:27:00 10° NE 06:29:54 26° ENE 06:29:54 26° ENE
Cosmos 1544 Rocket 3.9 06:27:41 10° NNW 06:31:55 54° W 06:32:12 53° WSW
S3M 3.9 06:32:18 10° N 06:38:33 80° E 06:39:53 57° SSE
Cosmos 1354 Rocket 3.9 06:34:16 10° NNW 06:39:35 82° WSW 06:40:09 71° S
Cosmos 1833 4.2 06:34:42 10° NNW 06:40:18 67° WSW 06:41:08 58° SSW
BREEZE-M DEB (TANK) 3.8 06:35:55 10° WNW 06:46:37 64° NNE 06:47:33 51° ENE
Meteor 2-8 Rocket 4.4 06:40:42 10° N 06:46:52 85° W 06:48:06 60° S
Cosmos 1553 Rocket 4.2 06:43:12 10° NNW 06:49:18 60° W 06:50:52 46° SW
CENTAUR R/B 3.5 06:42:49 10° NW 06:50:57 58° WSW 06:53:47 42° S
Meteor 1-16 Rocket 3.9 06:52:18 10° N 06:57:43 82° E 06:57:56 80° ESE
Spot 4 4.1 06:57:59 59° ENE 06:57:59 59° ENE 07:02:38 10° N
ATLAS 3B R/B 2.6 06:51:43 10° NNW 06:58:37 84° ENE 07:00:14 57° SE
Cosmos 1025 Rocket 4.4 06:58:55 30° W 06:59:24 31° WNW 07:03:16 10° NNW
ALOS 2 4.0 07:00:41 28° ENE 07:00:41 28° ENE 07:04:04 10° N
Cosmos 1674 4.0 07:05:25 36° NNE 07:05:25 36° NNE 07:07:47 10° N
Cosmos 1726 3.5 07:01:42 10° NNW 07:04:12 38° NW 07:04:12 38° NW
Cosmos 2266 Rocket 4.0 07:06:50 57° SW 07:07:57 71° W 07:14:00 10° N
Cosmos 2098 Rocket 4.3 07:08:10 58° S 07:09:49 82° E 07:17:18 10° N
Cosmos 2227 Rocket 4.0 07:05:58 10° N 07:10:17 22° NE 07:12:15 18° E
Cosmos 1340 Rocket 3.9 07:08:45 10° NNW 07:11:48 42° NW 07:11:48 42° NW
Exosat Rocket 4.1 07:07:46 10° NNW 07:15:59 74° WSW 07:16:59 63° SSW
RESURS DK-1 3.7 07:20:07 35° WNW 07:20:07 35° WNW 07:23:53 10° N
Cosmos 921 Rocket 3.9 07:21:53 46° NNE 07:21:53 46° NNE 07:25:00 10° NNE
Cosmos 2228 3.8 07:19:24 10° N 07:22:34 49° N 07:22:34 49° N
Meteor 2-5 Rocket 3.6 07:24:06 79° E 07:24:06 79° E 07:29:43 10° NNE
Lacrosse 4 Rocket 4.1 07:25:26 10° NNE 07:26:58 12° NE 07:28:19 10° ENE
Cosmos 1953 4.1 07:23:38 10° NNW 07:26:08 26° WNW 07:26:08 26° WNW
Meteor 2-21 4.4 07:27:49 66° ESE 07:28:07 68° E 07:34:17 10° NNE
Cosmos 1244 Rocket 4.4 07:30:39 66° ESE 07:30:58 68° E 07:37:04 10° NNE
Okean 1-7 Rocket 4.4 07:33:04 48° NNE 07:33:04 48° NNE 07:36:29 10° NNE
Cosmos 1626 4.0 07:35:29 27° NNE 07:35:29 27° NNE 07:37:20 10° NNE
Cosmos 1777 Rocket 4.2 07:33:00 10° NNW 07:37:45 64° WNW 07:37:45 64° WNW
Cosmos 1892 Rocket 4.3 07:40:08 50° N 07:40:08 50° N 07:43:26 10° N
Helios 1A 4.3 07:41:24 34° NE 07:41:24 34° NE 07:44:25 10° N
Cosmos 1726 Rocket 4.4 07:37:10 10° N 07:40:22 48° NNW 07:40:22 48° NNW
CZ-4C R/B 2.7 07:45:19 44° ENE 07:45:19 44° ENE 07:49:29 10° NE
SJ 16-02 2.9 07:46:20 10° N 07:49:50 29° NE 07:49:50 29° NE
SL-08 R/B 4.5 07:50:15 67° ESE 07:50:37 68° E 07:56:55 10° NNE
Cosmos 1980 Rocket 3.9 07:54:20 20° E 07:54:20 20° E 07:57:27 10° NE
Meteor 2-14 Rocket 4.3 07:55:28 76° SW 07:55:50 79° W 08:02:00 10° N
Meteor 2-21 Rocket 4.3 07:58:49 82° SSW 07:59:07 89° W 08:05:22 10° N
Cosmos 2369 4.4 08:02:55 43° E 08:02:55 43° E 08:07:32 10° NE
ATLAS CENTAUR R/B 4.1 08:01:51 10° N 08:02:52 18° NNE 08:02:52 18° NNE
Meteor 1-24 Rocket 3.9 08:07:36 56° WNW 08:07:36 56° WNW 08:12:58 10° N
SeaSat 1 3.7 08:04:22 10° N 08:08:48 34° WNW 08:09:40 31° WNW
Timation 2 Rocket 4.4 08:04:38 10° NW 08:10:06 44° W 08:10:06 44° W
Cosmos 468 Rocket 4.2 08:13:10 64° NE 08:13:10 64° NE 08:17:34 10° NNE
Cosmos 1656 3.7 08:15:17 70° WNW 08:15:21 70° WNW 08:20:58 10° NNE
Cosmos 2297 Rocket 2.1 08:11:23 10° NNW 08:16:56 83° NE 08:16:56 83° NE
Cosmos 2219 3.2 08:14:17 10° NNW 08:19:29 71° WNW 08:19:29 71° WNW
Cosmos 1626 Rocket 4.4 08:23:38 47° N 08:23:38 47° N 08:26:48 10° N
Cosmos 1709 Rocket 4.4 08:23:15 46° ESE 08:23:42 47° E 08:29:33 10° NNE
Cosmos 1937 Rocket 4.3 08:20:16 10° N 08:25:17 43° ENE 08:25:47 42° E
USA 215 3.9 08:22:46 14° ESE 08:28:19 52° NE 08:34:38 10° NW
Cosmos 2082 4.1 08:25:25 10° NNW 08:30:56 53° ENE 08:31:40 50° E
Cosmos 1898 Rocket 3.6 08:27:48 10° NNW 08:32:57 71° NE 08:32:57 71° NE
Meteor 2-1 Rocket 4.2 08:28:37 10° N 08:34:12 75° E 08:34:14 75° E
Cosmos 2278 3.8 08:39:07 63° E 08:39:07 63° E 08:44:27 10° NNE
Cosmos 1697 Rocket 2.6 08:39:13 82° WNW 08:39:13 82° WNW 08:44:55 10° NNE
Nadezhda 1 Rocket 3.9 08:37:17 10° N 08:43:32 75° W 08:43:59 72° SW
Cosmos 990 Rocket 4.0 08:39:35 10° NNW 08:44:22 74° NNW 08:44:22 74° NNW
Cosmos 1814 Rocket 4.3 08:47:07 58° E 08:47:07 58° E 08:51:59 10° NNE
Cosmos 2285 Rocket 4.4 08:40:37 10° N 08:46:53 57° ENE 08:48:31 44° ESE
Helios 1B rocket 3.4 08:44:13 10° N 08:47:12 46° N 08:47:12 46° N
ATLAS 3B R/B 4.5 08:44:19 10° WNW 08:47:28 17° W 08:47:28 17° W
Resurs 1-4 Rocket 3.7 08:49:22 10° NE 08:53:35 24° E 08:54:06 23° ESE
Cosmos 1812 Rocket 4.3 08:49:29 10° NNW 08:52:49 49° NNW 08:52:49 49° NNW
Cosmos 2227 Rocket 2.5 08:49:08 10° NNW 08:54:02 52° W 08:54:02 52° W
Cosmos 1825 Rocket 4.2 08:57:30 51° NE 08:57:30 51° NE 09:00:55 10° NNE
Cosmos 841 Rocket 3.4 08:58:06 82° NNE 08:58:06 82° NNE 09:03:05 10° NNE
Cosmos 1570 Rocket 4.0 09:01:12 75° WNW 09:01:12 75° WNW 09:06:25 10° NNE
PSLV R/B 4.5 09:00:19 10° N 09:03:49 43° NW 09:03:49 43° NW
Cosmos 1763 Rocket 4.3 09:05:57 39° WNW 09:06:03 39° WNW 09:10:49 10° N
Lacrosse 4 Rocket 2.6 09:01:57 10° NNW 09:04:36 36° NW 09:04:36 36° NW
SL-16 R/B 3.7 09:05:59 24° ESE 09:06:36 24° ESE 09:11:03 10° NE
Cosmos 1703 4.3 09:12:24 44° N 09:12:24 44° N 09:15:09 10° N
Cosmos 1455 3.7 09:08:56 10° NNW 09:11:04 32° NNW 09:11:04 32° NNW
Uosat 12 SS-18 rocket 4.4 09:09:46 10° NNW 09:13:33 64° N 09:13:33 64° N
Cosmos 2208 Rocket 4.1 09:19:06 61° W 09:19:17 62° WNW 09:24:35 10° NNE
FALCON 9 R/B 3.0 09:20:20 53° SSW 09:21:17 57° S 09:38:08 10° ESE
CZ-2D R/B 2.8 09:17:33 10° NNE 09:22:29 42° E 09:23:08 40° ESE
DELTA 2 DEB (DPAF) 4.4 09:23:37 60° E 09:23:42 60° ENE 09:28:07 10° N
USA 81 4.4 09:24:19 52° W 09:24:19 52° W 09:29:28 10° N
Meteor 2-10 Rocket 3.9 09:20:46 10° NNW 09:25:10 47° WNW 09:25:10 47° WNW
SJ 16-02 3.4 09:25:13 10° NW 09:26:48 17° WNW 09:26:48 17° WNW
Cosmos 2360 Rocket 4.3 09:28:00 13° ESE 09:29:55 15° E 09:33:04 10° ENE
CZ-4C R/B 3.9 09:30:27 16° WNW 09:33:01 23° NW 09:37:38 10° NNE
Cosmos 2184 Rocket 4.1 09:33:27 48° SSE 09:35:03 66° E 09:41:09 10° NNE
Cosmos 1980 Rocket 2.6 09:36:05 46° W 09:36:57 51° WNW 09:42:27 10° NNE
STARLINK-64 4.5 09:38:08 40° NNE 09:38:08 40° NNE 09:40:36 10° NE
STARLINK-1288 4.3 09:39:04 48° E 09:39:04 48° E 09:42:15 10° NE
MOZ.5/SAFIR/RUBIN 5/SL-8 3.7 09:41:21 72° ESE 09:41:42 78° ENE 09:46:21 10° N
STARLINK-1308 4.1 09:43:53 56° ENE 09:43:53 56° ENE 09:47:17 10° NE
Gblst 52 Del rocket 4.4 09:41:38 52° WSW 09:43:21 85° NW 09:50:25 10° NE
Cosmos 540 Rocket 4.3 09:42:52 36° W 09:43:24 37° WNW 09:48:09 10° N
Meteor 1-11 4.1 09:43:19 64° SW 09:44:07 76° W 09:49:43 10° N
BREEZE M DEB (TANK) 3.3 09:46:53 51° E 09:46:53 51° E 09:51:52 10° ESE
Timation 1 Rocket 4.3 09:40:29 10° NNW 09:46:28 81° ENE 09:48:53 38° SSE
STARLINK-61 4.4 09:47:33 41° E 09:47:33 41° E 09:50:24 10° ENE
Cosmos 2084 Rocket 3.8 09:43:07 10° NW 09:46:51 59° WNW 09:46:51 59° WNW
Cosmos 1400 Rocket 3.1 09:45:14 10° NNW 09:48:51 65° NW 09:48:51 65° NW
STARLINK-1304 3.7 09:53:25 74° ENE 09:53:25 74° ENE 09:57:14 10° NE
STARLINK-1278 3.7 09:54:58 77° NNW 09:54:58 77° NNW 09:59:11 10° NE
STARLINK-1280 3.7 09:56:45 75° NW 09:56:46 75° NW 10:01:01 10° NE
Cosmos 2263 Rocket 2.5 09:52:28 10° NNW 09:58:02 64° ENE 10:01:31 23° SE
Cosmos 2181 Rocket 4.3 09:51:57 10° NNW 09:58:09 51° W 09:59:30 44° SW
NOSS 2-1 (E) 3.5 09:59:04 55° NE 09:59:04 55° NE 10:01:53 10° NE
Cosmos 2297 Rocket 4.4 09:58:27 10° WNW 09:58:43 10° W 09:58:43 10° W
CZ-4B R/B 3.6 09:58:26 10° NNE 10:03:43 75° ESE 10:05:08 49° S
ADEOS II 3.1 09:59:05 10° NNE 10:03:59 39° E 10:06:13 26° SE
GP-B 3.4 10:01:41 10° N 10:05:59 51° W 10:06:01 51° W
Cosmos 2221 2.9 10:02:35 10° N 10:06:55 60° E 10:08:05 43° SE
NPP 3.6 10:02:33 10° NNE 10:07:58 84° WNW 10:09:24 51° SSW
STARLINK-1286 3.7 10:08:20 64° WNW 10:08:39 67° NW 10:12:49 10° NE
Meteor 2-17 Rocket 4.4 10:06:34 44° S 10:08:40 88° W 10:14:49 10° N
Cosmos 2154 Rocket 4.0 10:06:42 39° S 10:09:13 79° E 10:15:27 10° N
Cosmos 1842 Rocket 3.5 10:06:31 10° N 10:11:00 84° E 10:11:49 59° SSE
USA 215 3.5 10:10:02 40° SSW 10:11:20 45° SW 10:17:34 10° WNW
IRS-1D 3.9 10:06:12 10° NNE 10:11:24 59° E 10:13:13 38° SSE
SL-16 R/B 2.4 10:09:40 40° S 10:12:00 72° WSW 10:18:12 10° NNW
STARLINK-1281 3.7 10:12:34 59° WNW 10:13:01 64° NW 10:17:08 10° NE
Iridium 2 3.6 10:10:30 10° N 10:14:17 81° E 10:14:26 79° SE
Cosmos 2322 Rocket 2.1 10:13:24 46° S 10:15:08 79° ESE 10:20:46 10° NNE
STARLINK-39 4.4 10:17:16 32° ESE 10:17:16 32° ESE 10:20:05 10° ENE
CZ-4C R/B 3.8 10:17:10 49° W 10:17:10 49° W 10:21:26 10° NNW
In-Cosmos 22 Rocket 4.3 10:15:01 36° SSE 10:17:18 70° E 10:22:47 10° NNE
STARLINK-1310 3.9 10:17:19 51° WNW 10:17:58 58° NW 10:22:04 10° NE
STARLINK-31 4.4 10:18:46 34° ESE 10:18:46 34° ESE 10:21:39 10° ENE
ARIANE 5 R/B 3.9 10:14:38 10° NE 10:19:02 30° E 10:22:00 17° SSE
STARLINK-69 4.1 10:20:26 39° ESE 10:20:26 39° ESE 10:23:28 10° ENE
STARLINK-21 4.2 10:21:53 37° ESE 10:21:53 37° ESE 10:24:55 10° ENE
STARLINK-1319 4.1 10:22:06 44° W 10:22:57 53° NW 10:27:01 10° NE
STARLINK-45 3.9 10:23:38 44° ESE 10:23:38 44° ESE 10:26:51 10° ENE
Cosmos 1315 Rocket 2.6 10:20:12 10° N 10:24:09 89° W 10:24:44 64° S
STARLINK-70 3.9 10:24:50 44° ESE 10:24:50 44° ESE 10:28:02 10° ENE
Cosmos 2058 2.9 10:24:58 54° S 10:25:53 81° E 10:30:06 10° N
STARLINK-76 3.9 10:26:45 44° SE 10:26:45 44° SE 10:30:04 10° ENE
UNK 4.0 10:26:37 46° WSW 10:27:00 47° W 10:31:25 10° NNW
AQUA 3.9 10:22:28 10° N 10:27:12 65° WNW 10:28:26 46° SW
STARLINK-1277 4.2 10:26:53 38° W 10:27:57 49° NW 10:31:59 10° NE
STARLINK-23 3.8 10:28:06 45° SE 10:28:06 45° SE 10:31:26 10° ENE
STARLINK-1010 4.4 10:28:24 36° SSE 10:28:58 38° SE 10:32:54 10° ENE
Cosmos 2150 Rocket 4.3 10:24:35 10° NNW 10:29:25 41° WSW 10:30:00 40° WSW
STARLINK-32 3.7 10:29:33 47° SE 10:29:33 47° SE 10:32:56 10° ENE
STARLINK-1021 4.4 10:29:51 35° SSE 10:30:22 36° SE 10:34:11 10° ENE
STARLINK-40 3.6 10:31:18 49° SE 10:31:19 49° SE 10:34:48 10° ENE
STARLINK-44 3.5 10:32:40 51° SE 10:32:45 51° SE 10:36:12 10° ENE
STARLINK-1276 4.4 10:31:40 33° W 10:32:58 45° NW 10:36:57 10° NE
Resurs 1-4 Rocket 2.8 10:28:33 10° N 10:33:30 41° WNW 10:35:11 32° WSW
STARLINK-37 3.3 10:34:38 58° SSE 10:34:49 59° SE 10:38:21 10° NE
STARLINK-1019 4.3 10:34:35 37° SSE 10:35:17 40° SE 10:39:10 10° ENE
STARLINK-36 3.4 10:35:38 54° SSE 10:35:48 55° SE 10:39:16 10° ENE
Nadezhda 3 Rocket 4.0 10:32:16 10° N 10:38:36 75° W 10:42:28 25° S
Cosmos 2237 4.4 10:36:22 30° S 10:39:11 67° ESE 10:44:53 10° NNE
STARLINK-63 3.2 10:39:12 60° S 10:39:33 65° SE 10:43:05 10° NE
Meteor 2-2 Rocket 4.3 10:33:51 10° NNW 10:39:52 73° W 10:43:23 26° S
STARLINK-1012 4.2 10:39:23 38° SSE 10:40:15 45° SE 10:44:12 10° ENE
STARLINK-35 3.2 10:40:40 58° S 10:41:03 63° SE 10:44:36 10° NE
STARLINK-51 3.2 10:42:15 58° S 10:42:42 67° SE 10:46:15 10° NE
STARLINK-30 3.2 10:43:48 58° S 10:44:18 69° SE 10:47:52 10° NE
GEOS 3 Rocket 3.6 10:39:39 10° SE 10:44:48 90° ESE 10:50:07 10° NW
Cosmos 1125 Rocket 3.7 10:39:57 10° NNW 10:44:59 50° WSW 10:46:59 32° SSW
STARLINK-72 3.2 10:45:21 57° SSW 10:45:55 72° SE 10:49:28 10° NE
STARLINK-59 3.1 10:48:30 55° SW 10:49:12 83° SE 10:52:46 10° NE
STARLINK-1026 3.9 10:48:56 39° S 10:50:09 56° SE 10:54:13 10° ENE
SL-16 R/B 2.8 10:47:51 28° WSW 10:50:22 44° WNW 10:55:47 10° N
STARLINK-56 3.1 10:49:57 53° SW 10:50:41 81° SE 10:54:15 10° NE
STARLINK-71 3.4 10:49:39 44° SW 10:50:50 81° SE 10:54:52 10° NE
STARLINK-73 3.1 10:51:33 51° SW 10:52:21 84° SE 10:55:56 10° NE
Cosmos 1844 Rocket 4.1 10:47:35 10° N 10:52:47 38° ENE 10:57:55 10° SE
STARLINK-50 3.3 10:52:12 46° SW 10:53:12 81° SE 10:56:57 10° NE
STARLINK-60 3.2 10:50:20 10° NW 10:53:31 69° NE 10:56:42 10° SE
COSMOS 2428 4.5 10:49:09 10° SSE 10:53:40 25° ESE 10:58:13 10° NE
STARLINK-38 3.1 10:53:05 49° SW 10:53:57 88° SE 10:57:31 10° NE
STARLINK-68 3.2 10:53:27 47° SW 10:54:24 85° NW 10:58:02 10° NE
Meteor 1-28 Rocket 4.3 10:51:21 10° SE 10:54:54 43° ENE 10:58:29 10° N
STARLINK-1013 3.8 10:53:44 37° SSW 10:55:08 62° SE 10:59:14 10° NE
IRS-P3 4.1 10:49:58 10° N 10:55:19 78° WNW 10:58:20 27° SSW
STARLINK-65 3.1 10:54:39 47° SW 10:55:34 89° NNW 10:59:08 10° NE
STARLINK-53 3.1 10:56:16 45° WSW 10:57:15 82° NW 11:00:50 10° NE
SL-4 R/B 2.4 10:53:27 10° NW 10:58:16 80° NE 11:02:49 10° SE
STARLINK-1444 3.1 10:57:36 10° NW 10:59:50 48° NE 11:02:10 10° ESE
STARLINK-1009 3.7 10:58:30 35° SSW 11:00:05 69° SE 11:04:13 10° NE
CZ-2D R/B 4.2 10:56:15 10° NNE 11:00:26 51° E 11:03:41 16° S
STARLINK-1452 3.0 10:58:14 10° NW 11:00:27 49° NE 11:02:48 10° ESE
USA 229 DEB 3.9 10:53:56 10° NW 11:01:12 61° WSW 11:08:43 10° SSE
STARLINK-1450 2.9 10:59:04 10° NW 11:01:14 50° NE 11:03:32 10° ESE
USA 229 3.9 10:54:02 10° NW 11:01:18 62° WSW 11:08:50 10° SSE
STARLINK-1392 2.9 10:59:17 10° NW 11:01:27 50° NE 11:03:45 10° ESE
STARLINK-1415 2.9 10:59:17 10° NW 11:01:27 50° NE 11:03:45 10° ESE
STARLINK-1399 2.9 10:59:18 10° NW 11:01:28 50° NE 11:03:46 10° ESE
STARLINK-1394 2.9 10:59:19 10° NW 11:01:29 50° NE 11:03:47 10° ESE
STARLINK-1395 2.9 10:59:19 10° NW 11:01:29 50° NE 11:03:47 10° ESE
STARLINK-1396 2.9 10:59:20 10° NW 11:01:30 50° NE 11:03:48 10° ESE
STARLINK-1401 2.9 10:59:20 10° NW 11:01:30 50° NE 11:03:47 10° ESE
STARLINK-1393 2.9 10:59:20 10° NW 11:01:30 50° NE 11:03:47 10° ESE
STARLINK-1453 2.9 10:59:20 10° NW 11:01:30 50° NE 11:03:48 10° ESE
STARLINK-1397 2.9 10:59:20 10° NW 11:01:30 50° NE 11:03:48 10° ESE
STARLINK-1404 2.9 10:59:22 10° NW 11:01:32 50° NE 11:03:50 10° ESE
STARLINK-1417 2.9 10:59:23 10° NW 11:01:33 50° NE 11:03:51 10° ESE
STARLINK-1402 2.9 10:59:23 10° NW 11:01:33 50° NE 11:03:51 10° ESE
STARLINK-1413 2.9 10:59:24 10° NW 11:01:34 50° NE 11:03:52 10° ESE
STARLINK-1406 2.9 10:59:25 10° NW 11:01:35 50° NE 11:03:53 10° ESE
STARLINK-1440 2.9 10:59:26 10° NW 11:01:37 50° NE 11:03:55 10° ESE
STARLINK-1445 2.9 10:59:27 10° NW 11:01:38 50° NE 11:03:56 10° ESE
STARLINK-1443 2.9 10:59:28 10° NW 11:01:38 50° NE 11:03:56 10° ESE
STARLINK-1454 2.9 10:59:28 10° NW 11:01:38 50° NE 11:03:57 10° ESE
STARLINK-1457 2.9 10:59:29 10° NW 11:01:39 50° NE 11:03:58 10° ESE
STARLINK-1456 2.9 10:59:30 10° NW 11:01:40 50° NE 11:03:58 10° ESE
STARLINK-1414 2.9 10:59:28 10° NW 11:01:40 51° NE 11:04:00 10° ESE
STARLINK-1451 2.9 10:59:30 10° NW 11:01:41 50° NE 11:03:58 10° ESE
STARLINK-1442 2.9 10:59:32 10° NW 11:01:42 51° NE 11:03:59 10° ESE
STARLINK-1416 2.9 10:59:30 10° NW 11:01:42 51° NE 11:04:02 10° ESE
STARLINK-1408 2.9 10:59:30 10° NW 11:01:43 51° NE 11:04:02 10° ESE
STARLINK-1421 2.9 10:59:35 10° NW 11:01:45 51° NE 11:04:03 10° ESE
STARLINK-1405 2.9 10:59:34 10° NW 11:01:45 51° NE 11:04:02 10° ESE
STARLINK-1410 2.9 10:59:35 10° NW 11:01:45 51° NE 11:04:03 10° ESE
STARLINK-1400 2.9 10:59:35 10° NW 11:01:45 51° NE 11:04:03 10° ESE
STARLINK-1407 2.9 10:59:36 10° NW 11:01:47 51° NE 11:04:04 10° ESE
STARLINK-1439 2.9 10:59:36 10° NW 11:01:47 51° NE 11:04:04 10° ESE
STARLINK-1409 2.9 10:59:37 10° NW 11:01:47 51° NE 11:04:05 10° ESE
STARLINK-1436 (VISORSAT) 2.9 10:59:35 10° NW 11:01:47 51° NE 11:04:07 10° ESE
STARLINK-1419 2.9 10:59:34 10° NW 11:01:47 51° NE 11:04:07 10° ESE
STARLINK-1351 2.9 10:59:38 10° NW 11:01:49 51° NE 11:04:06 10° ESE
STARLINK-1370 2.9 10:59:38 10° NW 11:01:49 51° NE 11:04:06 10° ESE
STARLINK-1418 2.9 10:59:39 10° NW 11:01:49 51° NE 11:04:07 10° ESE
STARLINK-1398 2.9 10:59:36 10° NW 11:01:49 51° NE 11:04:10 10° ESE
STARLINK-1434 2.9 10:59:39 10° NW 11:01:49 51° NE 11:04:07 10° ESE
STARLINK-1403 2.9 10:59:40 10° NW 11:01:50 51° NE 11:04:08 10° ESE
STARLINK-1433 2.9 10:59:42 10° NW 11:01:52 51° NE 11:04:10 10° ESE
STARLINK-1422 2.9 10:59:39 10° NW 11:01:52 51° NE 11:04:12 10° ESE
STARLINK-1420 2.9 10:59:40 10° NW 11:01:53 51° NE 11:04:13 10° ESE
STARLINK-1411 2.9 10:59:43 10° NW 11:01:53 51° NE 11:04:11 10° ESE
STARLINK-1438 2.9 10:59:44 10° NW 11:01:54 51° NE 11:04:11 10° ESE
STARLINK-1460 2.9 10:59:42 10° NW 11:01:55 52° NE 11:04:15 10° ESE
STARLINK-1458 2.9 10:59:45 10° NW 11:01:58 52° NE 11:04:20 10° ESE
STARLINK-1423 2.9 10:59:48 10° NW 11:02:01 52° NE 11:04:22 10° ESE
STARLINK-1446 2.9 10:59:49 10° NW 11:02:03 52° NE 11:04:24 10° ESE
STARLINK-1437 2.9 10:59:51 10° NW 11:02:04 52° NE 11:04:25 10° ESE
STARLINK-1447 2.9 10:59:53 10° NW 11:02:07 52° NE 11:04:27 10° ESE
STARLINK-1455 2.9 10:59:54 10° NW 11:02:08 52° NE 11:04:28 10° ESE
STARLINK-1441 2.9 10:59:55 10° NW 11:02:08 52° NE 11:04:29 10° ESE
STARLINK-1448 2.9 10:59:58 10° NW 11:02:12 52° NE 11:04:33 10° ESE
STARLINK-1449 2.9 11:00:00 10° NW 11:02:13 52° NE 11:04:35 10° ESE
CZ-2D R/B 3.5 10:58:15 10° NNW 11:02:15 23° WNW 11:04:27 17° W
STARLINK-1412 2.9 11:00:09 10° NW 11:02:22 52° NE 11:04:44 10° ESE
NOSS 3-1 (C) 4.2 10:54:52 10° NW 11:02:33 57° WSW 11:11:08 10° SSE
STARLINK-1015 3.6 11:03:17 33° SW 11:05:04 76° SE 11:09:13 10° NE
Cosmos 1892 3.7 11:06:57 26° WSW 11:07:49 29° WNW 11:11:12 10° NNW
ERS-2 2.8 11:04:30 10° SSE 11:08:04 54° ENE 11:11:39 10° N
SL-08 R/B 3.1 11:04:16 13° S 11:08:27 80° WSW 11:13:04 10° NNW
STARLINK-1016 3.5 11:08:03 30° SW 11:10:01 84° SE 11:14:10 10° NE
Cosmos 1076 Rocket 4.4 11:08:45 26° WSW 11:10:18 33° WNW 11:14:16 10° NNW
NOSS 3-1 (A) 4.1 11:02:36 10° NW 11:10:27 75° WSW 11:19:15 10° SSE
H-2A R/B 3.0 11:06:24 10° SSE 11:10:40 50° ENE 11:15:01 10° N
Cosmos 1766 Rocket 3.9 11:07:18 15° S 11:10:45 63° E 11:15:01 10° NNE
Okean 3 Rocket 3.7 11:08:07 18° S 11:11:29 78° E 11:16:02 10° N
CZ-2C R/B 3.9 11:08:49 10° NNE 11:12:24 40° E 11:15:56 11° S
Cosmos 2341 Rocket 4.2 11:08:23 21° SSW 11:12:39 59° W 11:18:54 10° N
Cosmos 773 Rocket 4.0 11:09:51 23° SSW 11:13:11 77° WNW 11:18:30 10° NNE
Cosmos 2360 Rocket 2.3 11:09:47 24° SW 11:13:15 66° WNW 11:18:52 10° NNE
Cosmos 2151 2.9 11:11:13 23° SSW 11:13:49 76° W 11:18:08 10° N
STARLINK-24 3.8 11:12:18 26° WSW 11:14:24 62° NW 11:18:24 10° NE
STARLINK-1008 3.6 11:12:51 27° SW 11:15:01 88° NW 11:19:10 10° NE
CZ-3 R/B 4.4 10:46:20 17° SW 11:19:54 49° S 11:31:09 10° ESE
STARLINK-1014 3.6 11:17:40 25° SW 11:20:00 80° NW 11:24:07 10° NE
STARLINK-25 3.7 11:20:22 23° W 11:22:12 47° NW 11:25:31 10° NE
Lacrosse 5 rocket 2.8 11:21:10 13° S 11:24:06 27° SE 11:27:27 10° ENE
Cosmos 1959 Rocket 4.4 11:18:48 13° S 11:24:19 80° W 11:30:27 10° N
Cosmos 2333 Rocket 2.7 11:19:23 12° S 11:24:34 56° ESE 11:30:07 10° NNE
STARLINK-1025 3.7 11:22:25 22° WSW 11:24:59 73° NW 11:29:07 10° NE
STARLINK-29 3.4 11:22:43 10° NW 11:25:53 64° NE 11:29:01 10° ESE
Shenzhou-11 Module 3.2 11:25:45 10° WNW 11:27:59 30° N 11:30:13 10° ENE
STARLINK-1017 3.8 11:27:11 20° WSW 11:29:57 66° NW 11:34:05 10° NE
Cosmos 2322 3.7 11:25:56 16° SSW 11:30:39 88° WNW 11:36:25 10° NNE
Cosmos 2219 Rocket 2.6 11:25:54 10° S 11:31:17 60° ESE 11:36:47 10° NNE
SL-8 Rocket 4.3 11:29:37 15° SSW 11:34:47 53° W 11:40:55 10° N
STARLINK-1023 3.9 11:31:58 18° WSW 11:34:55 60° NW 11:39:02 10° NE
STARLINK-81 4.2 11:33:57 16° W 11:36:32 39° NW 11:39:58 10° NE
Cosmos 2218 Rocket 4.2 11:32:00 12° SSW 11:37:49 61° W 11:44:10 10° N
STARLINK-54 4.4 11:35:43 14° W 11:38:26 35° NNW 11:41:46 10° NE
STARLINK-77 4.3 11:37:09 14° W 11:39:53 37° NW 11:43:17 10° NE
STARLINK-1007 4.0 11:36:47 16° WSW 11:39:56 55° NW 11:44:02 10° NE
Cosmos 2333 4.2 11:35:10 14° SSW 11:40:02 78° WNW 11:45:41 10° NNE
CZ-2C R/B 4.1 11:36:04 10° NNE 11:40:44 33° E 11:45:20 10° SSE
Cosmos 2263 Rocket 3.7 11:38:09 10° WNW 11:41:19 16° W 11:43:07 13° WSW
Cosmos 1408 4.3 11:40:31 15° WSW 11:42:09 19° WNW 11:44:49 10° NNW
ADEOS II 3.4 11:39:13 10° NNW 11:43:26 25° WNW 11:47:09 12° WSW
ATLAS 5 CENTAUR R/B 3.1 11:40:05 10° S 11:43:33 28° ESE 11:47:14 10° NE
CZ-4B R/B 4.0 11:41:19 10° ESE 11:43:44 21° ENE 11:46:12 10° NNE
Cosmos 1825 3.3 11:42:06 16° SW 11:44:17 27° WNW 11:47:33 10° NNW
STARLINK-79 4.5 11:41:51 12° W 11:44:48 34° NNW 11:48:08 10° NNE
STARLINK-1048 4.2 11:41:33 14° WSW 11:44:55 50° NW 11:48:58 10° NE
IDEFIX/ARIANE 42P 2.6 11:43:13 10° N 11:48:28 71° WNW 11:53:40 10° SSW
STARLINK-1049 4.3 11:46:20 12° WSW 11:49:55 46° NW 11:53:56 10° NE
STARLINK-1051 4.4 11:51:06 11° WSW 11:54:53 42° NW 11:58:51 10° NE
